GW5374 Weather Reports


time (UTC)temp
C
wind
direction
speed
KPH
gust
KPH
rain 1hr
cm
rain 24hr
cm
rain mn
cm
humidity
%
barometer
mb
20260505000501 26 263 1.6 3.2 0.00 0.00 0.00 63 1009.4
20260505000003 26 241 1.6 4.8 0.00 0.00 0.00 62 1009.4
20260504235503 26 262 1.6 4.8 0.00 0.00 0.00 62 1009.6
20260504235003 26 200 1.6 4.8 0.00 0.00 0.00 62 1009.7
20260504234504 26 220 1.6 12.9 0.00 0.00 0.00 62 1009.7
20260504234002 26 234 3.2 12.9 0.00 0.00 0.00 61 1009.9
20260504233504 26 213 1.6 3.2 0.00 0.00 0.00 61 1009.9
20260504233012 26 219 1.6 9.7 0.00 0.00 0.00 61 1009.9
20260504232503 26 284 1.6 9.7 0.00 0.00 0.00 60 1009.9
20260504232004 26 261 1.6 8.0 0.00 0.00 0.00 61 1010.0
20260504231510 26 159 1.6 8.0 0.00 0.00 0.00 61 1010.0
20260504231003 26 247 1.6 12.9 0.00 0.00 0.00 60 1010.0
20260504230502 26 229 1.6 12.9 0.00 0.00 0.00 60 1010.0
20260504230002 27 207 1.6 12.9 0.00 0.00 0.00 60 1010.2
20260504225502 27 229 3.2 16.1 0.00 0.00 0.00 61 1010.2
20260504225004 27 223 1.6 16.1 0.00 0.00 0.00 61 1010.2
20260504224508 27 194 3.2 11.3 0.00 0.00 0.00 61 1010.3
20260504224003 27 223 3.2 11.3 0.00 0.00 0.00 60 1010.4
20260504223503 27 238 1.6 11.3 0.00 0.00 0.00 59 1010.4
20260504223004 27 215 1.6 11.3 0.00 0.00 0.00 60 1010.2
20260504222503 27 213 0.0 8.0 0.00 0.00 0.00 61 1010.4
20260504222003 26 159 1.6 14.5 0.00 0.00 0.00 61 1010.4
20260504221507 26 214 1.6 17.7 0.00 0.00 0.00 60 1010.5
20260504221003 27 314 3.2 17.7 0.00 0.00 0.00 60 1010.5
20260504220505 27 224 3.2 11.3 0.00 0.00 0.00 59 1010.6
20260504220012 27 207 1.6 4.8 0.00 0.00 0.00 60 1010.6
20260504215505 27 179 0.0 4.8 0.00 0.00 0.00 62 1010.6
20260504215002 27 246 0.0 11.3 0.00 0.00 0.00 60 1010.5
20260504214503 27 215 3.2 22.5 0.00 0.00 0.00 60 1010.5
20260504214003 26 249 1.6 22.5 0.00 0.00 0.00 60 1010.6
20260504213503 27 255 1.6 6.4 0.00 0.00 0.00 60 1010.8
20260504213003 27 186 1.6 8.0 0.00 0.00 0.00 61 1011.0
20260504212502 27 229 1.6 8.0 0.00 0.00 0.00 61 1011.1
20260504212005 27 236 1.6 12.9 0.00 0.00 0.00 60 1011.2
20260504211508 27 266 1.6 12.9 0.00 0.00 0.00 60 1011.2
20260504211005 27 172 0.0 9.7 0.00 0.00 0.00 61 1011.2
20260504210503 27 229 3.2 9.7 0.00 0.00 0.00 61 1011.4
20260504210015 26 191 1.6 4.8 0.00 0.00 0.00 61 1011.5
20260504205506 26 244 1.6 9.7 0.00 0.00 0.00 61 1011.5
20260504205008 26 175 3.2 9.7 0.00 0.00 0.00 61 1011.6
20260504204514 26 213 3.2 11.3 0.00 0.00 0.00 60 1011.7
20260504204004 26 203 1.6 11.3 0.00 0.00 0.00 61 1011.6
20260504203502 26 197 1.6 8.0 0.00 0.00 0.00 61 1011.7
20260504203004 26 224 1.6 9.7 0.00 0.00 0.00 60 1012.0
20260504202506 26 234 1.6 9.7 0.00 0.00 0.00 60 1012.0
20260504202004 26 210 1.6 4.8 0.00 0.00 0.00 59 1012.1
20260504201505 26 207 1.6 4.8 0.00 0.00 0.00 60 1012.3
20260504201003 26 173 1.6 6.4 0.00 0.00 0.00 60 1012.3
20260504200503 26 279 1.6 6.4 0.00 0.00 0.00 59 1012.4
20260504200014 26 244 1.6 4.8 0.00 0.00 0.00 59 1012.4
20260504195503 26 286 1.6 4.8 0.00 0.00 0.00 59 1012.7
20260504195007 26 238 0.0 9.7 0.00 0.00 0.00 61 1012.6
20260504194516 26 215 1.6 9.7 0.00 0.00 0.00 61 1012.8
20260504194007 26 201 1.6 6.4 0.00 0.00 0.00 60 1012.9
20260504193511 26 297 1.6 4.8 0.00 0.00 0.00 59 1012.9
20260504193018 26 238 1.6 4.8 0.00 0.00 0.00 60 1013.0
20260504192503 26 266 1.6 3.2 0.00 0.00 0.00 61 1013.0
20260504192007 26 202 1.6 4.8 0.00 0.00 0.00 60 1013.1
20260504191504 26 258 3.2 6.4 0.00 0.00 0.00 60 1013.2
20260504191002 26 195 1.6 6.4 0.00 0.00 0.00 62 1013.3
20260504190508 25 234 1.6 4.8 0.00 0.00 0.00 61 1013.3
20260504190007 25 201 1.6 4.8 0.00 0.00 0.00 62 1013.4
20260504185504 25 244 1.6 11.3 0.00 0.00 0.00 61 1013.3
20260504185005 25 264 1.6 11.3 0.00 0.00 0.00 62 1013.4
20260504184515 25 224 1.6 4.8 0.00 0.00 0.00 63 1013.4
20260504184007 25 247 1.6 8.0 0.00 0.00 0.00 63 1013.5
20260504183510 25 243 1.6 11.3 0.00 0.00 0.00 63 1013.5
20260504183024 25 209 1.6 12.9 0.00 0.00 0.00 64 1013.8
20260504182505 25 211 4.8 12.9 0.00 0.00 0.00 63 1013.9
20260504182008 25 311 1.6 4.8 0.00 0.00 0.00 65 1014.0
20260504181504 25 268 1.6 12.9 0.00 0.00 0.00 64 1014.2
20260504181004 24 243 1.6 12.9 0.00 0.00 0.00 65 1014.0
20260504180504 24 209 1.6 9.7 0.00 0.00 0.00 66 1014.1
20260504180004 24 323 1.6 12.9 0.00 0.00 0.00 65 1014.1
20260504175504 24 248 1.6 12.9 0.00 0.00 0.00 66 1014.2
20260504175005 23 273 1.6 9.7 0.00 0.00 0.00 68 1014.3
20260504174507 23 298 1.6 4.8 0.00 0.00 0.00 68 1014.4
20260504174003 23 265 1.6 4.8 0.00 0.00 0.00 68 1014.5
20260504173506 23 220 1.6 4.8 0.00 0.00 0.00 68 1014.7
20260504173014 22 220 1.6 4.8 0.00 0.00 0.00 68 1014.9
20260504172509 22 306 1.6 4.8 0.00 0.00 0.00 70 1014.9
20260504172006 22 292 1.6 3.2 0.00 0.00 0.00 69 1015.1
20260504171521 22 279 1.6 3.2 0.00 0.00 0.00 71 1015.3
20260504171011 22 275 0.0 3.2 0.00 0.00 0.00 70 1015.4
20260504170505 22 224 0.0 4.8 0.00 0.00 0.00 70 1015.2
20260504151007 21 221 1.6 8.0 0.00 0.00 0.00 71 1015.8
20260504150511 21 289 1.6 6.4 0.00 0.00 0.00 71 1015.7
20260504141008 19 228 1.6 9.7 0.00 0.00 0.00 74 1015.9
20260504140507 18 271 1.6 9.7 0.00 0.00 0.00 75 1015.9
20260504130504 16 204 0.0 4.8 0.00 0.00 0.00 81 1015.8
20260504110504 15 221 0.0 3.2 0.00 0.00 0.00 80 1015.6
20260504100507 16 185 0.0 3.2 0.00 0.00 0.00 78 1015.5
20260504082002 16 209 1.6 3.2 0.00 0.00 0.00 75 1015.8
20260504081504 16 184 1.6 3.2 0.00 0.00 0.00 75 1015.9
20260504081002 17 208 0.0 3.2 0.00 0.00 0.00 75 1016.0
20260504080507 17 221 0.0 4.8 0.00 0.00 0.00 75 1016.0
20260504050506 18 196 0.0 9.7 0.00 0.00 0.00 65 1018.4
20260504050022 18 208 1.6 9.7 0.00 0.00 0.00 65 1018.2
20260504045506 18 204 1.6 3.2 0.00 0.00 0.00 64 1018.3
20260504045014 18 232 0.0 6.4 0.00 0.00 0.00 64 1018.3
20260504044511 18 182 1.6 6.4 0.00 0.00 0.00 64 1018.4
20260504044003 18 190 1.6 6.4 0.00 0.00 0.00 63 1018.4
20260504043503 18 222 0.0 6.4 0.00 0.00 0.00 62 1018.5
20260504043013 18 232 0.0 8.0 0.00 0.00 0.00 61 1018.4
20260504042506 18 157 1.6 9.7 0.00 0.00 0.00 61 1018.4
20260504042005 18 213 1.6 9.7 0.00 0.00 0.00 60 1018.5
20260504041517 18 204 0.0 9.7 0.00 0.00 0.00 59 1018.6
20260504041005 19 188 1.6 9.7 0.00 0.00 0.00 58 1018.6
20260504040506 19 202 1.6 4.8 0.00 0.00 0.00 57 1018.6
20260504040020 19 149 0.0 6.4 0.00 0.00 0.00 57 1018.6
20260504035507 19 205 1.6 6.4 0.00 0.00 0.00 57 1018.6
20260504035010 19 196 1.6 4.8 0.00 0.00 0.00 56 1018.5
20260504034523 18 211 0.0 4.8 0.00 0.00 0.00 58 1018.5
20260504034010 18 184 0.0 4.8 0.00 0.00 0.00 61 1018.5
20260504033509 18 188 0.0 3.2 0.00 0.00 0.00 62 1018.4
20260504033012 18 188 0.0 3.2 0.00 0.00 0.00 62 1018.3
20260504032505 18 188 0.0 3.2 0.00 0.00 0.00 61 1018.3
20260504032005 17 188 0.0 1.6 0.00 0.00 0.00 62 1018.2
20260504031506 17 188 0.0 0.0 0.00 0.00 0.00 62 1018.4
20260504031001 17 188 0.0 0.0 0.00 0.00 0.00 62 1018.3
20260504030502 17 188 0.0 0.0 0.00 0.00 0.00 62 1018.3
20260504030003 17 188 0.0 0.0 0.00 0.00 0.00 61 1018.3
20260504025502 18 188 0.0 0.0 0.00 0.00 0.00 61 1018.3
20260504025004 18 188 0.0 0.0 0.00 0.00 0.00 62 1018.2
20260504024502 18 188 0.0 0.0 0.00 0.00 0.00 60 1018.3
20260504024001 18 188 0.0 0.0 0.00 0.00 0.00 60 1018.3
20260504023502 18 188 0.0 0.0 0.00 0.00 0.00 60 1018.2
20260504023008 18 188 0.0 0.0 0.00 0.00 0.00 59 1018.0
20260504022505 18 188 0.0 0.0 0.00 0.00 0.00 58 1018.2
20260504022004 18 188 0.0 0.0 0.00 0.00 0.00 57 1018.2
20260504021515 18 188 0.0 0.0 0.00 0.00 0.00 56 1018.3
20260504021005 18 188 0.0 0.0 0.00 0.00 0.00 55 1018.2
20260504020505 19 188 0.0 0.0 0.00 0.00 0.00 54 1018.2
20260504020003 19 188 0.0 0.0 0.00 0.00 0.00 53 1018.1
20260504015502 20 188 0.0 1.6 0.00 0.00 0.00 53 1017.9
20260504015001 20 188 0.0 3.2 0.00 0.00 0.00 52 1017.7
20260504014503 20 188 0.0 3.2 0.00 0.00 0.00 52 1017.7
20260504014002 20 193 0.0 0.0 0.00 0.00 0.00 51 1017.6
20260504013503 20 193 0.0 0.0 0.00 0.00 0.00 50 1017.6
20260504013007 20 193 0.0 3.2 0.00 0.00 0.00 50 1017.6
20260504012503 21 193 0.0 3.2 0.00 0.00 0.00 49 1017.6
20260504012003 21 167 0.0 0.0 0.00 0.00 0.00 48 1017.6
20260504011511 21 167 0.0 4.8 0.00 0.00 0.00 46 1017.6
20260504011002 21 167 0.0 4.8 0.00 0.00 0.00 45 1017.7
20260504010506 22 167 0.0 4.8 0.00 0.00 0.00 44 1017.7
20260504010015 22 167 0.0 4.8 0.00 0.00 0.00 43 1017.7
20260504005507 22 167 0.0 8.0 0.00 0.00 0.00 43 1017.6
20260504005006 22 194 1.6 8.0 0.00 0.00 0.00 43 1017.6
20260504004511 22 225 0.0 3.2 0.00 0.00 0.00 43 1017.6
20260504004003 22 186 0.0 3.2 0.00 0.00 0.00 43 1017.6
20260504003501 22 186 0.0 3.2 0.00 0.00 0.00 43 1017.6
20260504003003 22 253 0.0 3.2 0.00 0.00 0.00 42 1017.7
20260504002503 23 184 0.0 3.2 0.00 0.00 0.00 41 1017.7
20260504002003 23 205 0.0 3.2 0.00 0.00 0.00 42 1017.8
20260504001519 23 205 0.0 3.2 0.00 0.00 0.00 41 1018.0
20260504001003 23 167 0.0 3.2 0.00 0.00 0.00 42 1017.9